TimeEDT,TemperatureF,Dew PointF,Humidity,Sea Level PressureIn,VisibilityMPH,Wind Direction,Wind SpeedMPH,Gust SpeedMPH,PrecipitationIn,Events,Conditions,WindDirDegrees,DateUTC
12:54 AM,61.0,53.1,75,30.17,10.0,NNE,6.9,-,N/A,,Overcast,20,2013-08-24 04:54:00
1:54 AM,60.1,51.1,72,30.17,10.0,NNE,5.8,-,N/A,,Clear,20,2013-08-24 05:54:00
2:54 AM,57.9,51.1,78,30.19,10.0,North,4.6,-,N/A,,Clear,10,2013-08-24 06:54:00
3:54 AM,55.9,52.0,87,30.21,10.0,North,4.6,-,N/A,,Clear,10,2013-08-24 07:54:00
4:54 AM,55.0,52.0,89,30.23,10.0,Calm,Calm,-,N/A,,Clear,0,2013-08-24 08:54:00
5:54 AM,54.0,51.1,90,30.25,10.0,Calm,Calm,-,N/A,,Clear,0,2013-08-24 09:54:00
6:54 AM,53.1,51.1,93,30.28,10.0,Calm,Calm,-,N/A,,Clear,0,2013-08-24 10:54:00
7:54 AM,60.1,54.0,80,30.29,10.0,NNE,3.5,-,N/A,,Clear,30,2013-08-24 11:54:00
8:54 AM,64.9,54.0,68,30.31,10.0,NE,8.1,-,N/A,,Clear,50,2013-08-24 12:54:00
9:54 AM,68.0,54.0,61,30.32,10.0,NNE,6.9,-,N/A,,Clear,30,2013-08-24 13:54:00
10:54 AM,70.0,53.1,55,30.32,10.0,NE,6.9,-,N/A,,Clear,40,2013-08-24 14:54:00
11:54 AM,72.0,51.1,48,30.31,10.0,ENE,4.6,-,N/A,,Clear,60,2013-08-24 15:54:00
12:54 PM,73.0,50.0,44,30.31,10.0,Variable,3.5,-,N/A,,Clear,0,2013-08-24 16:54:00
1:54 PM,75.0,52.0,44,30.30,10.0,ENE,5.8,-,N/A,,Clear,60,2013-08-24 17:54:00
2:54 PM,75.9,52.0,43,30.30,10.0,ENE,6.9,-,N/A,,Clear,70,2013-08-24 18:54:00
3:54 PM,77.0,53.1,43,30.29,10.0,NNE,3.5,-,N/A,,Clear,30,2013-08-24 19:54:00
4:54 PM,77.0,52.0,42,30.29,10.0,Calm,Calm,-,N/A,,Clear,0,2013-08-24 20:54:00
5:54 PM,75.9,51.1,42,30.30,10.0,Calm,Calm,-,N/A,,Clear,0,2013-08-24 21:54:00
6:54 PM,73.0,53.1,49,30.30,10.0,Calm,Calm,-,N/A,,Clear,0,2013-08-24 22:54:00
7:54 PM,63.0,57.9,84,30.31,10.0,Calm,Calm,-,N/A,,Clear,0,2013-08-24 23:54:00
8:54 PM,60.1,55.9,86,30.33,10.0,Calm,Calm,-,N/A,,Clear,0,2013-08-25 00:54:00
9:54 PM,57.9,55.0,90,30.34,10.0,Calm,Calm,-,N/A,,Clear,0,2013-08-25 01:54:00
10:54 PM,57.0,54.0,89,30.35,10.0,Calm,Calm,-,N/A,,Clear,0,2013-08-25 02:54:00
11:54 PM,55.0,53.1,93,30.35,10.0,Calm,Calm,-,N/A,,Clear,0,2013-08-25 03:54:00